Meriden, CT

5:19 AM EDT on May 29, 2017 (GMT -0400)
Meriden Markham Municipal

Weather History for KMMK - October, 2013

Change the Weather History Date:

Friday, October 18, 2013

  Actual Average (KOXC) Record (KOXC)
Temperature  
Mean Temperature 57 °F -  
Max Temperature 69 °F 55 °F 78 °F (2016)
Min Temperature 44 °F 38 °F 26 °F (2015)
Degree Days  
Heating Degree Days 8    
Growing Degree Days 7 (Base 50)    
Moisture  
Dew Point 48 °F    
Average Humidity 67    
Maximum Humidity 94    
Minimum Humidity 37    
Precipitation  
Precipitation 0.00 in - - ()
Sea Level Pressure  
Sea Level Pressure 29.79 in    
Wind  
Wind Speed 8 mph (West)    
Max Wind Speed 13 mph    
Max Gust Speed 22 mph    
Visibility 10 miles    
Events Rain    
Averages and records for this station are not official NWS values.
T = Trace of Precipitation, MM = Missing Value Source: NWS Daily Summary

Daily Weather History Graph

Daily Weather History Graph

Search for Another Location

Airport or City:

Trip Planner

Search our weather history database for the weather conditions in past years. The results will help you decide how hot, cold, wet, or windy it might be!

Date:

Astronomy

Oct. 18, 2013 Rise Set
Actual Time 7:06 AM EDT 6:05 PM EDT
Civil Twilight 6:38 AM EDT 6:33 PM EDT
Nautical Twilight 6:06 AM EDT 7:05 PM EDT
Astronomical Twilight 5:34 AM EDT 7:37 PM EDT
Moon 5:53 PM EDT (10/18) 6:39 AM EDT (10/18)
Length of Visible Light 11h 54m
Length of Day
10h 58m
Full, 100% of the Moon is Illuminated
Oct 18
Full
Oct 18
Full
Oct 26
Last Quarter
Nov 3
New
Nov 10
First Quarter

Hourly Weather History & Observations

Time (EDT) Temp. Dew Point Humidity Pressure Visibility Wind Dir Wind Speed Gust Speed Precip Events Conditions
12:18 AM 62.6 °F 60.8 °F 94% 29.70 in 9.0 mi South 10.4 mph - 0.00 in Rain Light Rain
12:53 AM 63.0 °F 60.1 °F 90% 29.69 in 9.0 mi South 10.4 mph - 0.00 in Rain Light Rain
1:53 AM 63.0 °F 61.0 °F 93% 29.67 in 9.0 mi South 9.2 mph - 0.00 in Rain Light Rain
2:53 AM 64.0 °F 61.0 °F 90% 29.65 in 10.0 mi South 8.1 mph - 0.00 in   Overcast
3:43 AM 64.4 °F 60.8 °F 88% 29.65 in 10.0 mi SSW 5.8 mph - N/A   Mostly Cloudy
3:53 AM 64.0 °F 60.1 °F 87% 29.65 in 10.0 mi South 5.8 mph - N/A   Mostly Cloudy
4:53 AM 63.0 °F 52.0 °F 67% 29.68 in 10.0 mi WNW 9.2 mph 21.9 mph N/A   Partly Cloudy
5:53 AM 61.0 °F 50.0 °F 67% 29.70 in 10.0 mi West 12.7 mph 20.7 mph N/A   Clear
6:53 AM 59.0 °F 48.9 °F 69% 29.73 in 10.0 mi WNW 6.9 mph - N/A   Clear
7:53 AM 59.0 °F 48.9 °F 69% 29.76 in 10.0 mi Variable 4.6 mph - N/A   Clear
8:53 AM 61.0 °F 48.9 °F 64% 29.79 in 10.0 mi WNW 8.1 mph - N/A   Clear
9:53 AM 63.0 °F 46.9 °F 56% 29.81 in 10.0 mi NW 12.7 mph 17.3 mph N/A   Partly Cloudy
10:53 AM 64.0 °F 45.0 °F 50% 29.82 in 10.0 mi NNW 8.1 mph 16.1 mph N/A   Scattered Clouds
11:53 AM 66.0 °F 43.0 °F 43% 29.82 in 10.0 mi NW 8.1 mph - N/A   Partly Cloudy
12:53 PM 66.9 °F 44.1 °F 44% 29.82 in 10.0 mi WNW 9.2 mph 17.3 mph N/A   Clear
1:53 PM 68.0 °F 44.1 °F 42% 29.81 in 10.0 mi West 9.2 mph 21.9 mph N/A   Clear
2:53 PM 69.1 °F 42.1 °F 38% 29.82 in 10.0 mi WNW 12.7 mph 17.3 mph N/A   Partly Cloudy
3:53 PM 68.0 °F 41.0 °F 37% 29.83 in 10.0 mi NW 9.2 mph - N/A   Clear
4:53 PM 66.9 °F 39.9 °F 37% 29.83 in 10.0 mi NW 6.9 mph - N/A   Clear
5:53 PM 63.0 °F 39.9 °F 43% 29.84 in 10.0 mi WSW 3.5 mph - N/A   Clear
6:53 PM 54.0 °F 43.0 °F 66% 29.87 in 10.0 mi Calm Calm - N/A   Clear
7:53 PM 51.1 °F 43.0 °F 74% 29.90 in 10.0 mi Calm Calm - N/A   Clear
8:53 PM 50.0 °F 43.0 °F 77% 29.92 in 10.0 mi Calm Calm - N/A   Clear
9:53 PM 48.0 °F 44.1 °F 86% 29.94 in 10.0 mi Calm Calm - N/A   Clear
10:53 PM 45.0 °F 42.1 °F 90% 29.95 in 10.0 mi Calm Calm - N/A   Clear
11:53 PM 44.1 °F 41.0 °F 89% 29.96 in 10.0 mi Calm Calm - N/A   Clear